GW3832 Weather Reports


time (UTC)temp
F
wind
direction
speed
knots
gust
knots
rain 1hr
in
rain 24hr
in
rain mn
in
humidity
%
barometer
mb
20260507054631 57 96 0.0 0.9 0.00 0.25 0.02 90 1014.5
20260507053053 54 0 0.0 0.9 0.00 0.25 0.02 91 1014.4
20260507051552 52 0 0.0 0.0 0.00 0.25 0.02 91 1014.3
20260507050057 52 0 0.0 0.0 0.00 0.25 0.02 91 1014.2
20260507044554 51 0 0.0 0.0 0.00 0.25 0.02 91 1014.0
20260507043050 51 0 0.0 0.0 0.00 0.25 0.02 90 1013.8
20260507041603 51 0 0.0 0.0 0.00 0.25 0.02 90 1013.7
20260507040058 51 0 0.0 0.0 0.00 0.25 0.02 90 1013.7
20260507034600 51 0 0.0 0.9 0.00 0.25 0.02 90 1013.7
20260507033101 51 0 0.0 0.0 0.00 0.25 0.02 89 1013.6
20260507031605 52 0 0.0 0.0 0.00 0.25 0.02 89 1013.6
20260507030055 52 25 0.0 1.7 0.00 0.25 0.02 89 1013.6
20260507024553 52 13 0.0 0.9 0.00 0.37 0.02 89 1013.7
20260507023102 53 0 0.0 0.9 0.00 0.37 0.02 89 1013.7
20260507021551 53 0 0.0 0.9 0.00 0.37 0.02 88 1013.8
20260507020056 53 0 0.0 1.7 0.00 0.37 0.02 87 1013.6
20260507014600 53 37 0.9 2.6 0.00 0.37 0.02 87 1013.5
20260507013053 54 53 0.0 0.9 0.00 0.37 0.02 88 1013.6
20260507011552 54 0 0.0 0.9 0.00 0.37 0.02 87 1013.6
20260507010054 54 53 0.0 0.9 0.00 0.37 0.02 86 1013.8
20260507004552 54 0 0.0 1.7 0.00 0.37 0.02 86 1013.7
20260507003055 54 0 0.0 3.5 0.00 0.37 0.02 87 1013.7
20260507001551 54 112 0.0 0.9 0.00 0.37 0.02 87 1013.9
20260507000051 54 0 0.0 3.5 0.00 0.37 0.02 87 1013.8
20260506234550 54 139 0.9 2.6 0.00 0.37 0.02 87 1014.0
20260506233108 54 155 0.9 2.6 0.00 0.37 0.02 87 1013.9
20260506231553 54 70 0.9 3.5 0.00 0.37 0.02 88 1013.8
20260506230053 54 56 1.7 4.3 0.02 0.37 0.02 88 1014.0
20260506224553 55 134 2.6 5.2 0.02 0.40 0.02 88 1014.2
20260506223053 55 152 2.6 6.1 0.02 0.40 0.02 88 1014.0
20260506221553 55 137 1.7 5.2 0.01 0.40 0.01 88 1013.8
20260506220056 56 124 1.7 4.3 0.00 0.38 0.00 88 1013.9
20260506214552 56 136 0.9 4.3 0.00 0.38 0.38 88 1013.9
20260506213113 56 136 0.9 3.5 0.00 0.38 0.38 88 1013.8
20260506211551 56 0 0.0 1.7 0.00 0.38 0.38 88 1013.6
20260506210054 57 140 0.0 2.6 0.00 0.38 0.38 88 1013.6
20260506204554 57 127 0.9 2.6 0.00 0.38 0.38 88 1013.5
20260506203053 57 98 0.9 1.7 0.00 0.38 0.38 88 1013.4
20260506201550 58 128 1.7 4.3 0.00 0.38 0.38 88 1013.3
20260506200053 58 120 1.7 3.5 0.00 0.38 0.38 88 1013.2
20260506194616 59 122 0.9 3.5 0.00 0.38 0.38 88 1012.7
20260506193102 59 122 0.9 3.5 0.00 0.38 0.38 89 1012.8
20260506191551 59 135 0.0 4.3 0.00 0.38 0.38 89 1012.4
20260506190057 60 110 0.9 7.0 0.00 0.38 0.38 89 1012.1
20260506184638 60 134 1.7 3.5 0.00 0.38 0.38 88 1012.0
20260506183057 61 0 0.0 0.9 0.00 0.38 0.38 88 1011.7
20260506181556 61 0 0.0 0.0 0.00 0.38 0.38 88 1011.7
20260506180106 62 0 0.0 0.0 0.00 0.38 0.38 89 1011.6
20260506174556 62 260 0.0 1.7 0.00 0.38 0.38 89 1011.4
20260506173058 62 0 0.0 0.9 0.00 0.38 0.38 89 1011.3
20260506171603 61 160 0.0 2.6 0.00 0.38 0.38 89 1011.4
20260506170105 61 0 0.0 1.7 0.01 0.38 0.38 89 1011.4
20260506164557 61 0 0.0 1.7 0.01 0.38 0.38 88 1011.2
20260506163112 61 71 0.9 1.7 0.09 0.38 0.38 88 1011.0
20260506161551 61 288 0.0 1.7 0.14 0.38 0.38 88 1011.1
20260506160056 61 360 0.0 3.5 0.13 0.37 0.37 87 1011.2
20260506154615 61 288 1.7 7.0 0.20 0.37 0.37 86 1010.9
20260506153107 62 64 0.9 3.5 0.13 0.29 0.29 85 1010.8
20260506151558 62 26 0.9 3.5 0.09 0.25 0.24 85 1010.4
20260506150051 62 61 0.9 4.3 0.08 0.24 0.23 84 1010.6
20260506144551 63 53 0.9 6.1 0.01 0.19 0.16 81 1010.8
20260506143104 62 37 2.6 5.2 0.00 0.18 0.15 80 1010.8
20260506141556 63 7 1.7 6.1 0.00 0.18 0.14 77 1011.0
20260506140057 63 304 1.7 7.0 0.00 0.18 0.14 74 1011.1
20260506134553 65 246 3.5 10.4 0.00 0.18 0.14 71 1011.2
20260506133053 69 188 3.5 11.3 0.00 0.18 0.14 66 1010.9
20260506131550 71 200 2.6 12.2 0.00 0.18 0.14 66 1010.5
20260506130052 71 198 4.3 13.9 0.00 0.18 0.14 67 1010.5
20260506124552 71 150 4.3 11.3 0.00 0.25 0.14 69 1010.7
20260506123054 73 207 3.5 9.6 0.00 0.25 0.14 63 1010.8
20260506121550 73 128 4.3 14.8 0.00 0.25 0.14 63 1010.7
20260506120059 71 250 3.5 13.0 0.00 0.25 0.14 67 1010.6
20260506114559 71 222 2.6 7.8 0.00 0.75 0.14 67 1011.0
20260506113054 72 235 2.6 10.4 0.00 0.75 0.14 67 1011.0
20260506111557 70 169 1.7 9.6 0.00 0.75 0.14 72 1011.1
20260506104553 69 233 5.2 14.8 0.00 0.76 0.14 71 1011.4
20260506103053 68 182 4.3 10.4 0.00 0.76 0.14 72 1011.4
20260506101602 68 186 7.0 17.4 0.00 0.76 0.14 71 1011.4
20260506100053 68 150 5.2 10.4 0.00 0.76 0.14 71 1011.5
20260506094621 70 182 4.3 10.4 0.00 0.76 0.14 70 1011.4
20260506093056 67 221 3.5 12.2 0.00 0.76 0.14 72 1011.4
20260506091550 66 200 6.1 10.4 0.00 0.76 0.14 72 1011.5
20260506090052 66 148 3.5 12.2 0.00 0.76 0.14 74 1011.4
20260506084552 64 186 3.5 8.7 0.00 0.76 0.14 80 1011.4
20260506083052 63 204 3.5 9.6 0.00 0.76 0.14 83 1011.5
20260506081550 63 160 2.6 5.2 0.00 0.76 0.14 83 1011.3
20260506073053 60 148 1.7 4.3 0.00 0.76 0.14 87 1011.2
20260506071550 60 113 1.7 5.2 0.00 0.76 0.14 87 1011.2
20260506061553 59 118 2.6 7.8 0.00 0.76 0.14 86 1010.9